When you browse on this site, cookies collect data to enhance your experience and personalize the content and advertising you see.
Visit our Privacy Policy to learn more. By continuing to use the site, you agree to this use of cookies and data.
  • In Spain
  • List of Countries
  • For 7 days
  • Water Temperature
  • Satellite Maps
  • Weather Map
  • Weather Widgets
  • user-avatar
    Login

    Hourly Weather Kaprun

    Today, 17 December, Monday

    Time Temperature Precipitation Wind Pressure Humidity
    00:00 -9°C° 0 mm 1 mps 591 mmHg 88%
    01:00 -9°C° 0 mm 1 mps 591 mmHg 89%
    02:00 -9°C° 0 mm 1 mps 591 mmHg 88%
    03:00 -9°C° 0 mm 1 mps 591 mmHg 88%
    04:00 -9°C° 0 mm 1 mps 591 mmHg 88%
    05:00 -9°C° 0 mm 1 mps 591 mmHg 88%
    06:00 -10°C° 0 mm 1 mps 591 mmHg 87%
    07:00 -10°C° 0 mm 1 mps 592 mmHg 86%
    08:00 -9°C° 0 mm 1 mps 592 mmHg 85%
    09:00 -9°C° 0 mm 2 mps 593 mmHg 84%
    10:00 -8°C° 0 mm 2 mps 594 mmHg 83%
    11:00 -7°C° 0 mm 2 mps 595 mmHg 82%
    12:00 -7°C° 0 mm 2 mps 595 mmHg 82%
    13:00 -6°C° 0 mm 2 mps 596 mmHg 81%
    14:00 -6°C° 0 mm 2 mps 596 mmHg 84%
    15:00 -7°C° 0 mm 2 mps 596 mmHg 86%
    16:00 -8°C° 0 mm 2 mps 596 mmHg 89%
    17:00 -8°C° 0 mm 2 mps 596 mmHg 89%
    18:00 -9°C° 0 mm 2 mps 597 mmHg 88%
    19:00 -9°C° 0 mm 2 mps 597 mmHg 88%
    20:00 -9°C° 0.1 mm 2 mps 597 mmHg 89%
    21:00 -10°C° 0.1 mm 2 mps 598 mmHg 89%
    22:00 -10°C° 0.1 mm 2 mps 598 mmHg 89%
    23:00 -10°C° 0.1 mm 2 mps 598 mmHg 90%

    Tomorrow, 18 December, Tuesday

    Time Temperature Precipitation Wind Pressure Humidity
    00:00 -10°C° 0.1 mm 2 mps 598 mmHg 91%
    01:00 -10°C° 0.1 mm 2 mps 598 mmHg 91%
    02:00 -10°C° 0 mm 2 mps 598 mmHg 91%
    03:00 -10°C° 0 mm 2 mps 598 mmHg 91%
    04:00 -12°C° 0 mm 2 mps 598 mmHg 91%
    05:00 -10°C° 0 mm 1 mps 598 mmHg 90%
    06:00 -11°C° 0 mm 1 mps 597 mmHg 88%
    07:00 -11°C° 0 mm 1 mps 597 mmHg 87%
    08:00 -10°C° 0 mm 1 mps 598 mmHg 82%
    09:00 -9°C° 0 mm 1 mps 598 mmHg 77%
    10:00 -8°C° 0 mm 1 mps 599 mmHg 73%
    11:00 -6°C° 0 mm 1 mps 599 mmHg 71%
    12:00 -4°C° 0 mm 1 mps 599 mmHg 70%
    13:00 -2°C° 0 mm 1 mps 599 mmHg 68%
    14:00 -4°C° 0 mm 1 mps 598 mmHg 71%
    15:00 -6°C° 0 mm 1 mps 597 mmHg 75%
    16:00 -7°C° 0 mm 1 mps 597 mmHg 78%
    17:00 -8°C° 0 mm 1 mps 596 mmHg 75%
    18:00 -10°C° 0 mm 2 mps 596 mmHg 72%
    19:00 -10°C° 0 mm 2 mps 595 mmHg 69%
    20:00 -10°C° 0 mm 2 mps 595 mmHg 66%
    21:00 -10°C° 0 mm 2 mps 595 mmHg 64%
    22:00 -10°C° 0 mm 2 mps 595 mmHg 61%
    23:00 -10°C° 0 mm 2 mps 595 mmHg 59%

    Day after tomorrow, 19 December, Wednesday

    Time Temperature Precipitation Wind Pressure Humidity
    00:00 -10°C° 0 mm 2 mps 595 mmHg 57%
    01:00 -10°C° 0 mm 2 mps 594 mmHg 56%
    02:00 -10°C° 0 mm 2 mps 594 mmHg 55%
    03:00 -9°C° 0 mm 2 mps 594 mmHg 54%
    04:00 -9°C° 0 mm 2 mps 594 mmHg 53%
    05:00 -9°C° 0 mm 2 mps 594 mmHg 53%
    06:00 -9°C° 0 mm 2 mps 594 mmHg 52%
    07:00 -7°C° 0 mm 1 mps 594 mmHg 52%
    08:00 -6°C° 0 mm 1 mps 594 mmHg 54%
    09:00 -4°C° 0 mm 1 mps 595 mmHg 57%
    10:00 -3°C° 0 mm 1 mps 595 mmHg 59%
    11:00 -3°C° 0 mm 1 mps 595 mmHg 62%
    12:00 -2°C° 0 mm 1 mps 595 mmHg 64%
    13:00 -1°C° 0 mm 1 mps 595 mmHg 67%
    14:00 -2°C° 0 mm 1 mps 594 mmHg 69%
    15:00 -3°C° 0 mm 1 mps 594 mmHg 71%
    16:00 -6°C° 0 mm 1 mps 593 mmHg 73%
    17:00 -7°C° 0 mm 1 mps 593 mmHg 73%
    18:00 -9°C° 0 mm 2 mps 592 mmHg 74%
    19:00 -10°C° 0 mm 2 mps 592 mmHg 74%
    20:00 -10°C° 0 mm 2 mps 592 mmHg 75%
    21:00 -10°C° 0 mm 2 mps 592 mmHg 76%
    22:00 -10°C° 0 mm 2 mps 592 mmHg 77%
    23:00 -10°C° 0.1 mm 2 mps 592 mmHg 80%

    20 December, Thursday

    Time Temperature Precipitation Wind Pressure Humidity
    00:00 -10°C° 0.1 mm 2 mps 592 mmHg 82%
    01:00 -9°C° 0.1 mm 1 mps 592 mmHg 84%
    02:00 -8°C° 0.4 mm 1 mps 592 mmHg 87%
    03:00 -8°C° 0.4 mm 1 mps 592 mmHg 90%
    04:00 -7°C° 0.4 mm 1 mps 592 mmHg 92%
    05:00 -7°C° 0.9 mm 1 mps 592 mmHg 94%
    06:00 -7°C° 0.9 mm 1 mps 592 mmHg 95%
    07:00 -6°C° 0.9 mm 1 mps 593 mmHg 96%
    08:00 -6°C° 1 mm 1 mps 593 mmHg 96%
    09:00 -6°C° 1 mm 1 mps 593 mmHg 96%
    10:00 -4°C° 1 mm 1 mps 593 mmHg 95%
    11:00 -6°C° 1 mm 2 mps 593 mmHg 95%
    12:00 -6°C° 1 mm 2 mps 593 mmHg 95%
    13:00 -6°C° 1 mm 2 mps 593 mmHg 95%
    14:00 -6°C° 0.6 mm 2 mps 593 mmHg 95%
    15:00 -7°C° 0.6 mm 2 mps 593 mmHg 95%
    16:00 -7°C° 0.6 mm 2 mps 593 mmHg 95%
    17:00 -7°C° 0.2 mm 2 mps 593 mmHg 95%
    18:00 -8°C° 0.2 mm 2 mps 594 mmHg 94%
    19:00 -8°C° 0.2 mm 2 mps 594 mmHg 93%
    20:00 -9°C° 0 mm 2 mps 594 mmHg 92%
    21:00 -9°C° 0 mm 2 mps 594 mmHg 90%
    22:00 -10°C° 0 mm 2 mps 594 mmHg 88%
    23:00 -10°C° 0.1 mm 2 mps 594 mmHg 87%

    21 December, Friday

    Time Temperature Precipitation Wind Pressure Humidity
    00:00 -10°C° 0.1 mm 2 mps 594 mmHg 86%
    01:00 -12°C° 0.1 mm 2 mps 594 mmHg 85%
    02:00 -12°C° 0 mm 2 mps 594 mmHg 85%
    03:00 -12°C° 0 mm 2 mps 594 mmHg 85%
    04:00 -13°C° 0 mm 2 mps 594 mmHg 85%
    05:00 -13°C° 0.1 mm 2 mps 594 mmHg 84%
    06:00 -13°C° 0.1 mm 2 mps 594 mmHg 82%
    07:00 -13°C° 0.1 mm 2 mps 594 mmHg 81%
    08:00 -10°C° 0.1 mm 1 mps 595 mmHg 81%
    09:00 -8°C° 0.1 mm 1 mps 595 mmHg 81%
    10:00 -7°C° 0.1 mm 1 mps 596 mmHg 81%
    11:00 -6°C° 0.1 mm 1 mps 596 mmHg 79%
    12:00 -4°C° 0.1 mm 1 mps 596 mmHg 78%
    13:00 -3°C° 0.1 mm 1 mps 596 mmHg 76%
    14:00 -3°C° 0 mm 1 mps 596 mmHg 78%
    15:00 -4°C° 0 mm 1 mps 596 mmHg 80%
    16:00 -6°C° 0 mm 1 mps 595 mmHg 81%
    17:00 -6°C° 0 mm 1 mps 595 mmHg 80%
    18:00 -7°C° 0 mm 2 mps 595 mmHg 80%
    19:00 -8°C° 0 mm 2 mps 595 mmHg 79%
    20:00 -7°C° 0.2 mm 2 mps 595 mmHg 80%
    21:00 -7°C° 0.2 mm 2 mps 595 mmHg 81%
    22:00 -7°C° 0.2 mm 2 mps 595 mmHg 82%
    23:00 -6°C° 0.5 mm 2 mps 595 mmHg 83%

    22 December, Saturday

    Time Temperature Precipitation Wind Pressure Humidity
    00:00 -6°C° 0.5 mm 2 mps 595 mmHg 85%
    01:00 -6°C° 0.5 mm 2 mps 595 mmHg 87%
    02:00 -5°C° 1 mm 2 mps 595 mmHg 88%
    03:00 -5°C° 1 mm 2 mps 595 mmHg 89%
    04:00 -4°C° 1 mm 2 mps 596 mmHg 90%
    05:00 -4°C° 0.2 mm 2 mps 596 mmHg 91%
    06:00 -4°C° 0.2 mm 2 mps 596 mmHg 91%
    07:00 -4°C° 0.2 mm 2 mps 596 mmHg 92%
    08:00 -4°C° 0.1 mm 2 mps 597 mmHg 93%
    09:00 -3°C° 0.1 mm 2 mps 598 mmHg 94%
    10:00 -3°C° 0.1 mm 2 mps 598 mmHg 94%
    11:00 -2°C° 0 mm 2 mps 598 mmHg 95%
    12:00 -2°C° 0 mm 2 mps 598 mmHg 96%
    13:00 -2°C° 0 mm 2 mps 599 mmHg 96%
    14:00 -3°C° 0 mm 2 mps 598 mmHg 94%
    15:00 -4°C° 0 mm 2 mps 598 mmHg 91%
    16:00 -4°C° 0 mm 2 mps 598 mmHg 89%
    17:00 -5°C° 0 mm 2 mps 598 mmHg 84%
    18:00 -5°C° 0 mm 2 mps 598 mmHg 80%
    19:00 -5°C° 0 mm 2 mps 598 mmHg 75%
    20:00 -3°C° 0.3 mm 1 mps 599 mmHg 78%
    21:00 -3°C° 0.3 mm 1 mps 599 mmHg 81%
    22:00 -3°C° 0.3 mm 1 mps 599 mmHg 84%
    23:00 -2°C° 0.4 mm 1 mps 599 mmHg 86%
    Show more